EW7133 Weather Reports


time (UTC)temp
C
wind
direction
speed
KPH
gust
KPH
rain 1hr
cm
rain 24hr
cm
rain mn
cm
humidity
%
barometer
mb
20260504044534 7 250 0.0 0.0 0.00 0.00 0.00 65 1012.8
20260504043017 8 249 0.0 0.0 0.00 0.00 0.00 64 1012.8
20260504041516 8 249 0.0 0.0 0.00 0.00 0.00 62 1012.6
20260504040116 8 360 0.0 0.0 0.00 0.00 0.00 60 1012.3
20260504034557 8 360 0.0 0.0 0.00 0.00 0.00 60 1012.2
20260504033039 8 270 0.0 0.0 0.00 0.00 0.00 62 1012.2
20260504031539 8 270 0.0 0.0 0.00 0.00 0.00 62 1012.2
20260504030021 8 270 0.0 0.0 0.00 0.00 0.00 62 1012.1
20260504024522 8 270 0.0 0.0 0.00 0.00 0.00 61 1012.1
20260504023003 8 269 0.0 0.0 0.00 0.00 0.00 61 1012.2
20260504021503 8 269 0.0 0.0 0.00 0.00 0.00 60 1012.1
20260504020046 8 269 0.0 0.0 0.00 0.00 0.00 60 1012.1
20260504014557 8 269 0.0 0.0 0.00 0.00 0.00 60 1012.1
20260504013027 8 269 0.0 0.0 0.00 0.00 0.00 60 1012.0
20260504011527 8 269 0.0 0.0 0.00 0.00 0.00 58 1011.8
20260504010009 9 269 0.0 0.0 0.00 0.00 0.00 57 1011.6
20260504004508 10 269 0.0 0.0 0.00 0.00 0.00 55 1011.3
20260504003101 11 269 0.0 0.0 0.00 0.00 0.00 52 1011.2
20260504001605 12 269 0.0 0.0 0.00 0.00 0.00 48 1011.0
20260504000033 13 269 0.0 0.0 0.00 0.00 0.00 45 1010.8
20260503234534 13 268 0.0 0.0 0.00 0.00 0.00 42 1010.6
20260503233017 13 261 0.0 0.0 0.00 0.00 0.00 41 1010.5
20260503231514 14 247 0.0 0.0 0.00 0.00 0.00 39 1010.5
20260503224556 15 277 0.0 0.0 0.00 0.00 0.00 38 1010.3
20260503223038 15 229 0.0 0.0 0.00 0.00 0.00 36 1010.4
20260503221537 15 279 0.0 0.0 0.00 0.00 0.00 36 1010.3
20260503220020 16 360 0.0 0.0 0.00 0.00 0.00 35 1010.2
20260503214519 15 290 0.0 0.0 0.00 0.00 0.00 35 1010.1
20260503213100 15 252 0.0 0.0 0.00 0.00 0.00 35 1010.0
20260503211600 16 334 0.0 0.0 0.00 0.00 0.00 33 1010.1
20260503210040 15 360 0.0 0.0 0.00 0.00 0.00 35 1010.0
20260503204541 15 346 0.0 0.0 0.00 0.00 0.00 36 1010.2
20260503203019 15 250 0.0 0.0 0.00 0.00 0.00 38 1010.3
20260503201519 14 230 0.0 0.0 0.00 0.00 0.00 36 1010.5
20260503200115 13 306 0.0 0.0 0.00 0.00 0.00 39 1010.6
20260503194557 13 50 0.0 0.0 0.00 0.00 0.00 36 1010.6
20260503193110 14 221 0.0 0.0 0.00 0.00 0.00 35 1011.0
20260503191537 14 221 0.0 0.0 0.00 0.00 0.00 38 1011.0
20260503190041 15 195 0.0 0.0 0.00 0.00 0.00 39 1011.1
20260503184522 15 360 0.0 0.0 0.00 0.00 0.00 35 1011.1
20260503183013 13 313 0.0 0.0 0.00 0.00 0.00 37 1011.3
20260503181619 13 275 0.0 0.0 0.00 0.00 0.00 41 1011.4
20260503180053 13 142 0.0 0.0 0.00 0.00 0.00 40 1011.5
20260503174536 13 288 0.0 0.0 0.00 0.00 0.00 38 1011.7
20260503173032 13 347 0.0 0.0 0.00 0.00 0.00 38 1011.8
20260503171521 12 263 0.0 0.0 0.00 0.00 0.00 42 1011.8
20260503081507 6 338 0.0 0.0 0.00 0.08 0.00 61 1011.0
20260503071533 7 18 0.0 0.0 0.00 0.13 0.00 61 1010.5
20260503060113 7 360 0.0 0.0 0.00 0.13 0.00 60 1010.9
20260503054539 7 332 0.0 0.0 0.00 0.13 0.00 60 1010.8
20260503053032 7 308 0.0 0.0 0.00 0.13 0.00 59 1011.0